Year,Month,Day,Hour,Minute,Value (Times are PST for temperature in C)
2018,08,20,00,00,15.50
2018,08,20,00,01,15.50
2018,08,20,00,02,15.50
2018,08,20,00,03,15.50
2018,08,20,00,04,15.50
2018,08,20,00,05,15.50
2018,08,20,00,06,15.50
2018,08,20,00,07,15.60
2018,08,20,00,08,15.60
2018,08,20,00,09,15.70
2018,08,20,00,10,15.70
2018,08,20,00,11,15.70
2018,08,20,00,12,15.80
2018,08,20,00,13,15.80
2018,08,20,00,14,15.80
2018,08,20,00,15,15.80
2018,08,20,00,16,15.80
2018,08,20,00,17,15.80
2018,08,20,00,18,15.90
2018,08,20,00,19,15.90
2018,08,20,00,20,15.90
2018,08,20,00,21,15.90
2018,08,20,00,22,15.80
2018,08,20,00,23,15.80
2018,08,20,00,24,15.80
2018,08,20,00,25,15.80
2018,08,20,00,26,15.80
2018,08,20,00,27,15.80
2018,08,20,00,28,15.80
2018,08,20,00,29,15.80
2018,08,20,00,30,15.80
2018,08,20,00,31,15.80
2018,08,20,00,32,15.80
2018,08,20,00,33,15.80
2018,08,20,00,34,15.80
2018,08,20,00,35,15.80
2018,08,20,00,36,15.80
2018,08,20,00,37,15.80
2018,08,20,00,38,15.80
2018,08,20,00,39,15.80
2018,08,20,00,40,15.80
2018,08,20,00,41,15.80
2018,08,20,00,42,15.80
2018,08,20,00,43,15.80
2018,08,20,00,44,15.80
2018,08,20,00,45,15.80
2018,08,20,00,46,15.80
2018,08,20,00,47,15.80
2018,08,20,00,48,15.70
2018,08,20,00,49,15.70
2018,08,20,00,50,15.70
2018,08,20,00,51,15.70
2018,08,20,00,52,15.70
2018,08,20,00,53,15.70
2018,08,20,00,54,15.60
2018,08,20,00,55,15.60
2018,08,20,00,56,15.60
2018,08,20,00,57,15.60
2018,08,20,00,58,15.60
2018,08,20,00,59,15.60
2018,08,20,01,00,15.60
2018,08,20,01,01,15.50
2018,08,20,01,02,15.50
2018,08,20,01,03,15.50
2018,08,20,01,04,15.50
2018,08,20,01,05,15.50
2018,08,20,01,06,15.50
2018,08,20,01,07,15.50
2018,08,20,01,08,15.50
2018,08,20,01,09,15.50
2018,08,20,01,10,15.40
2018,08,20,01,11,15.40
2018,08,20,01,12,15.40
2018,08,20,01,13,15.40
2018,08,20,01,14,15.40
2018,08,20,01,15,15.40
2018,08,20,01,16,15.30
2018,08,20,01,17,15.30
2018,08,20,01,18,15.30
2018,08,20,01,19,15.30
2018,08,20,01,20,15.30
2018,08,20,01,21,15.30
2018,08,20,01,22,15.30
2018,08,20,01,23,15.30
2018,08,20,01,24,15.30
2018,08,20,01,25,15.30
2018,08,20,01,26,15.20
2018,08,20,01,27,15.20
2018,08,20,01,28,15.20
2018,08,20,01,29,15.20
2018,08,20,01,30,15.20
2018,08,20,01,31,15.20
2018,08,20,01,32,15.10
2018,08,20,01,33,15.10
2018,08,20,01,34,15.10
2018,08,20,01,35,15.10
2018,08,20,01,36,15.10
2018,08,20,01,37,15.00
2018,08,20,01,38,15.00
2018,08,20,01,39,15.00
2018,08,20,01,40,15.00
2018,08,20,01,41,14.90
2018,08,20,01,42,14.90
2018,08,20,01,43,14.90
2018,08,20,01,44,14.90
2018,08,20,01,45,14.90
2018,08,20,01,46,14.80
2018,08,20,01,47,14.80
2018,08,20,01,48,14.80
2018,08,20,01,49,14.80
2018,08,20,01,50,14.80
2018,08,20,01,51,14.80
2018,08,20,01,52,14.80
2018,08,20,01,53,14.80
2018,08,20,01,54,14.80
2018,08,20,01,55,14.80
2018,08,20,01,56,14.80
2018,08,20,01,57,14.80
2018,08,20,01,58,14.80
2018,08,20,01,59,14.70
2018,08,20,02,00,14.70
2018,08,20,02,01,14.70
2018,08,20,02,02,14.70
2018,08,20,02,03,14.70
2018,08,20,02,04,14.70
2018,08,20,02,05,14.60
2018,08,20,02,06,14.60
2018,08,20,02,07,14.60
2018,08,20,02,08,14.60
2018,08,20,02,09,14.60
2018,08,20,02,10,14.60
2018,08,20,02,11,14.50
2018,08,20,02,12,14.50
2018,08,20,02,13,14.50
2018,08,20,02,14,14.50
2018,08,20,02,15,14.50
2018,08,20,02,16,14.40
2018,08,20,02,17,14.40
2018,08,20,02,18,14.40
2018,08,20,02,19,14.40
2018,08,20,02,20,14.30
2018,08,20,02,21,14.30
2018,08,20,02,22,14.30
2018,08,20,02,23,14.20
2018,08,20,02,24,14.20
2018,08,20,02,25,14.20
2018,08,20,02,26,14.20
2018,08,20,02,27,14.20
2018,08,20,02,28,14.20
2018,08,20,02,29,14.10
2018,08,20,02,30,14.10
2018,08,20,02,31,14.10
2018,08,20,02,32,14.10
2018,08,20,02,33,14.00
2018,08,20,02,34,14.00
2018,08,20,02,35,14.00
2018,08,20,02,36,14.00
2018,08,20,02,37,13.90
2018,08,20,02,38,13.90
2018,08,20,02,39,13.90
2018,08,20,02,40,13.90
2018,08,20,02,41,13.90
2018,08,20,02,42,13.90
2018,08,20,02,43,13.90
2018,08,20,02,44,13.80
2018,08,20,02,45,13.80
2018,08,20,02,46,13.80
2018,08,20,02,47,13.80
2018,08,20,02,48,13.80
2018,08,20,02,49,13.80
2018,08,20,02,50,13.80
2018,08,20,02,51,13.70
2018,08,20,02,52,13.70
2018,08,20,02,53,13.70
2018,08,20,02,54,13.70
2018,08,20,02,55,13.70
2018,08,20,02,56,13.70
2018,08,20,02,57,13.70
2018,08,20,02,58,13.70
2018,08,20,02,59,13.70
2018,08,20,03,00,13.70
2018,08,20,03,01,13.70
2018,08,20,03,02,13.70
2018,08,20,03,03,13.60
2018,08,20,03,04,13.60
2018,08,20,03,05,13.60
2018,08,20,03,06,13.60
2018,08,20,03,07,13.60
2018,08,20,03,08,13.60
2018,08,20,03,09,13.70
2018,08,20,03,10,13.70
2018,08,20,03,11,13.70
2018,08,20,03,12,13.70
2018,08,20,03,13,13.70
2018,08,20,03,14,13.80
2018,08,20,03,15,13.80
2018,08,20,03,16,13.80
2018,08,20,03,17,13.80
2018,08,20,03,18,13.80
2018,08,20,03,19,13.80
2018,08,20,03,20,13.80
2018,08,20,03,21,13.80
2018,08,20,03,22,13.80
2018,08,20,03,23,13.80
2018,08,20,03,24,13.70
2018,08,20,03,25,13.70
2018,08,20,03,26,13.70
2018,08,20,03,27,13.70
2018,08,20,03,28,13.70
2018,08,20,03,29,13.70
2018,08,20,03,30,13.70
2018,08,20,03,31,13.70
2018,08,20,03,32,13.70
2018,08,20,03,33,13.70
2018,08,20,03,34,13.70
2018,08,20,03,35,13.70
2018,08,20,03,36,13.70
2018,08,20,03,37,13.70
2018,08,20,03,38,13.70
2018,08,20,03,39,13.60
2018,08,20,03,40,13.60
2018,08,20,03,41,13.60
2018,08,20,03,42,13.60
2018,08,20,03,43,13.60
2018,08,20,03,44,13.60
2018,08,20,03,45,13.60
2018,08,20,03,46,13.60
2018,08,20,03,47,13.60
2018,08,20,03,48,13.60
2018,08,20,03,49,13.60
2018,08,20,03,50,13.60
2018,08,20,03,51,13.60
2018,08,20,03,52,13.60
2018,08,20,03,53,13.60
2018,08,20,03,54,13.60
2018,08,20,03,55,13.60
2018,08,20,03,56,13.50
2018,08,20,03,57,13.50
2018,08,20,03,58,13.50
2018,08,20,03,59,13.50
2018,08,20,04,00,13.50
2018,08,20,04,01,13.50
2018,08,20,04,02,13.50
2018,08,20,04,03,13.50
2018,08,20,04,04,13.50
2018,08,20,04,05,13.50
2018,08,20,04,06,13.60
2018,08,20,04,07,13.60
2018,08,20,04,08,13.60
2018,08,20,04,09,13.60
2018,08,20,04,10,13.60
2018,08,20,04,11,13.70
2018,08,20,04,12,13.70
2018,08,20,04,13,13.70
2018,08,20,04,14,13.60
2018,08,20,04,15,13.60
2018,08,20,04,16,13.60
2018,08,20,04,17,13.60
2018,08,20,04,18,13.60
2018,08,20,04,19,13.60
2018,08,20,04,20,13.60
2018,08,20,04,21,13.60
2018,08,20,04,22,13.60
2018,08,20,04,23,13.60
2018,08,20,04,24,13.60
2018,08,20,04,25,13.60
2018,08,20,04,26,13.60
2018,08,20,04,27,13.60
2018,08,20,04,28,13.60
2018,08,20,04,29,13.60
2018,08,20,04,30,13.50
2018,08,20,04,31,13.50
2018,08,20,04,32,13.50
2018,08,20,04,33,13.50
2018,08,20,04,34,13.50
2018,08,20,04,35,13.50
2018,08,20,04,36,13.50
2018,08,20,04,37,13.50
2018,08,20,04,38,13.50
2018,08,20,04,39,13.50
2018,08,20,04,40,13.50
2018,08,20,04,41,13.50
2018,08,20,04,42,13.50
2018,08,20,04,43,13.40
2018,08,20,04,44,13.40
2018,08,20,04,45,13.40
2018,08,20,04,46,13.40
2018,08,20,04,47,13.40
2018,08,20,04,48,13.40
2018,08,20,04,49,13.30
2018,08,20,04,50,13.30
2018,08,20,04,51,13.30
2018,08,20,04,52,13.30
2018,08,20,04,53,13.30
2018,08,20,04,54,13.30
2018,08,20,04,55,13.30
2018,08,20,04,56,13.30
2018,08,20,04,57,13.30
2018,08,20,04,58,13.30
2018,08,20,04,59,13.30
2018,08,20,05,00,13.30
2018,08,20,05,01,13.30
2018,08,20,05,02,13.30
2018,08,20,05,03,13.30
2018,08,20,05,04,13.30
2018,08,20,05,05,13.30
2018,08,20,05,06,13.30
2018,08,20,05,07,13.30
2018,08,20,05,08,13.30
2018,08,20,05,09,13.30
2018,08,20,05,10,13.30
2018,08,20,05,11,13.30
2018,08,20,05,12,13.30
2018,08,20,05,13,13.30
2018,08,20,05,14,13.30
2018,08,20,05,15,13.30
2018,08,20,05,16,13.30
2018,08,20,05,17,13.30
2018,08,20,05,18,13.20
2018,08,20,05,19,13.20
2018,08,20,05,20,13.20
2018,08,20,05,21,13.20
2018,08,20,05,22,13.10
2018,08,20,05,23,13.10
2018,08,20,05,24,13.10
2018,08,20,05,25,13.10
2018,08,20,05,26,13.10
2018,08,20,05,27,13.10
2018,08,20,05,28,13.10
2018,08,20,05,29,13.10
2018,08,20,05,30,13.00
2018,08,20,05,31,13.00
2018,08,20,05,32,13.00
2018,08,20,05,33,13.00
2018,08,20,05,34,13.00
2018,08,20,05,35,13.00
2018,08,20,05,36,13.00
2018,08,20,05,37,13.00
2018,08,20,05,38,13.00
2018,08,20,05,39,13.00
2018,08,20,05,40,12.90
2018,08,20,05,41,12.90
2018,08,20,05,42,12.90
2018,08,20,05,43,12.90
2018,08,20,05,44,12.90
2018,08,20,05,45,12.90
2018,08,20,05,46,12.90
2018,08,20,05,47,12.90
2018,08,20,05,48,12.90
2018,08,20,05,49,12.90
2018,08,20,05,50,12.80
2018,08,20,05,51,12.80
2018,08,20,05,52,12.90
2018,08,20,05,53,12.90
2018,08,20,05,54,12.90
2018,08,20,05,55,12.90
2018,08,20,05,56,12.90
2018,08,20,05,57,12.90
2018,08,20,05,58,12.90
2018,08,20,05,59,12.90
2018,08,20,06,00,12.90
2018,08,20,06,01,12.90
2018,08,20,06,02,12.90
2018,08,20,06,03,12.90
2018,08,20,06,04,12.80
2018,08,20,06,05,12.80
2018,08,20,06,06,12.80
2018,08,20,06,07,12.80
2018,08,20,06,08,12.80
2018,08,20,06,09,12.80
2018,08,20,06,10,12.80
2018,08,20,06,11,12.80
2018,08,20,06,12,12.80
2018,08,20,06,13,12.80
2018,08,20,06,14,12.80
2018,08,20,06,15,12.80
2018,08,20,06,16,12.80
2018,08,20,06,17,12.80
2018,08,20,06,18,12.80
2018,08,20,06,19,12.80
2018,08,20,06,20,12.80
2018,08,20,06,21,12.80
2018,08,20,06,22,12.80
2018,08,20,06,23,12.80
2018,08,20,06,24,12.80
2018,08,20,06,25,12.80
2018,08,20,06,26,12.80
2018,08,20,06,27,12.80
2018,08,20,06,28,12.80
2018,08,20,06,29,12.80
2018,08,20,06,30,12.80
2018,08,20,06,31,12.80
2018,08,20,06,32,12.80
2018,08,20,06,33,12.80
2018,08,20,06,34,12.80
2018,08,20,06,35,12.80
2018,08,20,06,36,12.80
2018,08,20,06,37,12.80
2018,08,20,06,38,12.80
2018,08,20,06,39,12.80
2018,08,20,06,40,12.80
2018,08,20,06,41,12.80
2018,08,20,06,42,12.80
2018,08,20,06,43,12.80
2018,08,20,06,44,12.80
2018,08,20,06,45,12.80
2018,08,20,06,46,12.80
2018,08,20,06,47,12.80
2018,08,20,06,48,12.80
2018,08,20,06,49,12.80
2018,08,20,06,50,12.80
2018,08,20,06,51,12.80
2018,08,20,06,52,12.80
2018,08,20,06,53,12.80
2018,08,20,06,54,12.80
2018,08,20,06,55,12.80
2018,08,20,06,56,12.80
2018,08,20,06,57,12.80
2018,08,20,06,58,12.80
2018,08,20,06,59,12.80
2018,08,20,07,00,12.80
2018,08,20,07,01,12.80
2018,08,20,07,02,12.80
2018,08,20,07,03,12.80
2018,08,20,07,04,12.80
2018,08,20,07,05,12.80
2018,08,20,07,06,12.80
2018,08,20,07,07,12.80
2018,08,20,07,08,12.80
2018,08,20,07,09,12.80
2018,08,20,07,10,12.80
2018,08,20,07,11,12.80
2018,08,20,07,12,12.80
2018,08,20,07,13,12.80
2018,08,20,07,14,12.80
2018,08,20,07,15,12.80
2018,08,20,07,16,12.80
2018,08,20,07,17,12.80
2018,08,20,07,18,12.80
2018,08,20,07,19,12.80
2018,08,20,07,20,12.80
2018,08,20,07,21,12.80
2018,08,20,07,22,12.90
2018,08,20,07,23,12.90
2018,08,20,07,24,12.90
2018,08,20,07,25,12.90
2018,08,20,07,26,12.90
2018,08,20,07,27,12.90
2018,08,20,07,28,12.90
2018,08,20,07,29,12.90
2018,08,20,07,30,12.90
2018,08,20,07,31,12.90
2018,08,20,07,32,12.90
2018,08,20,07,33,12.90
2018,08,20,07,34,12.90
2018,08,20,07,35,12.90
2018,08,20,07,36,12.90
2018,08,20,07,37,12.90
2018,08,20,07,38,13.00
2018,08,20,07,39,13.00
2018,08,20,07,40,13.00
2018,08,20,07,41,13.10
2018,08,20,07,42,13.10
2018,08,20,07,43,13.10
2018,08,20,07,44,13.20
2018,08,20,07,45,13.20
2018,08,20,07,46,13.20
2018,08,20,07,47,13.20
2018,08,20,07,48,13.20
2018,08,20,07,49,13.20
2018,08,20,07,50,13.30
2018,08,20,07,51,13.30
2018,08,20,07,52,13.30
2018,08,20,07,53,13.30
2018,08,20,07,54,13.30
2018,08,20,07,55,13.30
2018,08,20,07,56,13.30
2018,08,20,07,57,13.40
2018,08,20,07,58,13.40
2018,08,20,07,59,13.50
2018,08,20,08,00,13.50
2018,08,20,08,01,13.50
2018,08,20,08,02,13.60
2018,08,20,08,03,13.60
2018,08,20,08,04,13.60
2018,08,20,08,05,13.70
2018,08,20,08,06,13.70
2018,08,20,08,07,13.70
2018,08,20,08,08,13.80
2018,08,20,08,09,13.90
2018,08,20,08,10,13.90
2018,08,20,08,11,14.00
2018,08,20,08,12,14.00
2018,08,20,08,13,14.00
2018,08,20,08,14,14.10
2018,08,20,08,15,14.20
2018,08,20,08,16,14.20
2018,08,20,08,17,14.20
2018,08,20,08,18,14.30
2018,08,20,08,19,14.30
2018,08,20,08,20,14.40
2018,08,20,08,21,14.40
2018,08,20,08,22,14.50
2018,08,20,08,23,14.50
2018,08,20,08,24,14.60
2018,08,20,08,25,14.60
2018,08,20,08,26,14.70
2018,08,20,08,27,14.70
2018,08,20,08,28,14.80
2018,08,20,08,29,14.80
2018,08,20,08,30,14.80
2018,08,20,08,31,14.90
2018,08,20,08,32,14.90
2018,08,20,08,33,15.00
2018,08,20,08,34,15.10
2018,08,20,08,35,15.10
2018,08,20,08,36,15.20
2018,08,20,08,37,15.20
2018,08,20,08,38,15.30
2018,08,20,08,39,15.30
2018,08,20,08,40,15.30
2018,08,20,08,41,15.40
2018,08,20,08,42,15.50
2018,08,20,08,43,15.50
2018,08,20,08,44,15.50
2018,08,20,08,45,15.60
2018,08,20,08,46,15.60
2018,08,20,08,47,15.70
2018,08,20,08,48,15.80
2018,08,20,08,49,15.80
2018,08,20,08,50,15.80
2018,08,20,08,51,15.90
2018,08,20,08,52,15.90
2018,08,20,08,53,16.00
2018,08,20,08,54,16.10
2018,08,20,08,55,16.10
2018,08,20,08,56,16.10
2018,08,20,08,57,16.10
2018,08,20,08,58,16.20
2018,08,20,08,59,16.20
2018,08,20,09,00,16.30
2018,08,20,09,01,16.30
2018,08,20,09,02,16.40
2018,08,20,09,03,16.40
2018,08,20,09,04,16.40
2018,08,20,09,05,16.40
2018,08,20,09,06,16.50
2018,08,20,09,07,16.60
2018,08,20,09,08,16.70
2018,08,20,09,09,16.70
2018,08,20,09,10,16.70
2018,08,20,09,11,16.80
2018,08,20,09,12,16.80
2018,08,20,09,13,16.90
2018,08,20,09,14,16.90
2018,08,20,09,15,17.00
2018,08,20,09,16,17.00
2018,08,20,09,17,17.10
2018,08,20,09,18,17.20
2018,08,20,09,19,17.30
2018,08,20,09,20,17.30
2018,08,20,09,21,17.30
2018,08,20,09,22,17.40
2018,08,20,09,23,17.40
2018,08,20,09,24,17.50
2018,08,20,09,25,17.60
2018,08,20,09,26,17.70
2018,08,20,09,27,17.70
2018,08,20,09,28,17.80
2018,08,20,09,29,17.80
2018,08,20,09,30,17.90
2018,08,20,09,31,17.90
2018,08,20,09,32,17.90
2018,08,20,09,33,17.90
2018,08,20,09,34,17.90
2018,08,20,09,35,17.90
2018,08,20,09,36,18.00
2018,08,20,09,37,18.10
2018,08,20,09,38,18.20
2018,08,20,09,39,18.20
2018,08,20,09,40,18.20
2018,08,20,09,41,18.30
2018,08,20,09,42,18.30
2018,08,20,09,43,18.40
2018,08,20,09,44,18.40
2018,08,20,09,45,18.50
2018,08,20,09,46,18.60
2018,08,20,09,47,18.60
2018,08,20,09,48,18.70
2018,08,20,09,49,18.70
2018,08,20,09,50,18.80
2018,08,20,09,51,18.80
2018,08,20,09,52,18.90
2018,08,20,09,53,18.90
2018,08,20,09,54,19.00
2018,08,20,09,55,19.10
2018,08,20,09,56,19.10
2018,08,20,09,57,19.10
2018,08,20,09,58,19.10
2018,08,20,09,59,19.20
2018,08,20,10,00,19.20
2018,08,20,10,01,19.30
2018,08,20,10,02,19.40
2018,08,20,10,03,19.40
2018,08,20,10,04,19.50
2018,08,20,10,05,19.60
2018,08,20,10,06,19.60
2018,08,20,10,07,19.60
2018,08,20,10,08,19.70
2018,08,20,10,09,19.80
2018,08,20,10,10,19.80
2018,08,20,10,11,19.90
2018,08,20,10,12,19.90
2018,08,20,10,13,19.90
2018,08,20,10,14,20.00
2018,08,20,10,15,20.10
2018,08,20,10,16,20.10
2018,08,20,10,17,20.20
2018,08,20,10,18,20.20
2018,08,20,10,19,20.20
2018,08,20,10,20,20.30
2018,08,20,10,21,20.30
2018,08,20,10,22,20.40
2018,08,20,10,23,20.50
2018,08,20,10,24,20.50
2018,08,20,10,25,20.50
2018,08,20,10,26,20.60
2018,08,20,10,27,20.60
2018,08,20,10,28,20.70
2018,08,20,10,29,20.70
2018,08,20,10,30,20.80
2018,08,20,10,31,20.80
2018,08,20,10,32,20.80
2018,08,20,10,33,20.90
2018,08,20,10,34,20.90
2018,08,20,10,35,21.00
2018,08,20,10,36,21.10
2018,08,20,10,37,21.20
2018,08,20,10,38,21.30
2018,08,20,10,39,21.30
2018,08,20,10,40,21.40
2018,08,20,10,41,21.50
2018,08,20,10,42,21.60
2018,08,20,10,43,21.60
2018,08,20,10,44,21.60
2018,08,20,10,45,21.70
2018,08,20,10,46,21.70
2018,08,20,10,47,21.70
2018,08,20,10,48,21.80
2018,08,20,10,49,21.90
2018,08,20,10,50,22.00
2018,08,20,10,51,22.00
2018,08,20,10,52,22.10
2018,08,20,10,53,22.20
2018,08,20,10,54,22.30
2018,08,20,10,55,22.40
2018,08,20,10,56,22.30
2018,08,20,10,57,22.20
2018,08,20,10,58,22.10
2018,08,20,10,59,22.00
2018,08,20,11,00,21.90
2018,08,20,11,01,21.80
2018,08,20,11,02,21.70
2018,08,20,11,03,21.60
2018,08,20,11,04,21.60
2018,08,20,11,05,21.60
2018,08,20,11,06,21.50
2018,08,20,11,07,21.40
2018,08,20,11,08,21.30
2018,08,20,11,09,21.30
2018,08,20,11,10,21.30
2018,08,20,11,11,21.30
2018,08,20,11,12,21.30
2018,08,20,11,13,21.40
2018,08,20,11,14,21.40
2018,08,20,11,15,21.60
2018,08,20,11,16,21.60
2018,08,20,11,17,21.60
2018,08,20,11,18,21.70
2018,08,20,11,19,21.70
2018,08,20,11,20,21.70
2018,08,20,11,21,21.70
2018,08,20,11,22,21.80
2018,08,20,11,23,21.80
2018,08,20,11,24,21.90
2018,08,20,11,25,22.00
2018,08,20,11,26,22.10
2018,08,20,11,27,22.10
2018,08,20,11,28,22.10
2018,08,20,11,29,22.20
2018,08,20,11,30,22.20
2018,08,20,11,31,22.30
2018,08,20,11,32,22.30
2018,08,20,11,33,22.30
2018,08,20,11,34,22.30
2018,08,20,11,35,22.30
2018,08,20,11,36,22.40
2018,08,20,11,37,22.40
2018,08,20,11,38,22.50
2018,08,20,11,39,22.50
2018,08,20,11,40,22.60
2018,08,20,11,41,22.60
2018,08,20,11,42,22.70
2018,08,20,11,43,22.90
2018,08,20,11,44,22.90
2018,08,20,11,45,23.00
2018,08,20,11,46,23.00
2018,08,20,11,47,22.90
2018,08,20,11,48,22.90
2018,08,20,11,49,22.90
2018,08,20,11,50,22.90
2018,08,20,11,51,22.90
2018,08,20,11,52,22.90
2018,08,20,11,53,22.90
2018,08,20,11,54,22.90
2018,08,20,11,55,22.90
2018,08,20,11,56,22.90
2018,08,20,11,57,22.90
2018,08,20,11,58,22.90
2018,08,20,11,59,22.90
2018,08,20,12,00,22.90
2018,08,20,12,01,22.90
2018,08,20,12,02,23.00
2018,08,20,12,03,23.10
2018,08,20,12,04,23.10
2018,08,20,12,05,23.10
2018,08,20,12,06,23.10
2018,08,20,12,07,23.10
2018,08,20,12,08,23.20
2018,08,20,12,09,23.20
2018,08,20,12,10,23.30
2018,08,20,12,11,23.40
2018,08,20,12,12,23.40
2018,08,20,12,13,23.50
2018,08,20,12,14,23.60
2018,08,20,12,15,23.60
2018,08,20,12,16,23.60
2018,08,20,12,17,23.60
2018,08,20,12,18,23.60
2018,08,20,12,19,23.60
2018,08,20,12,20,23.60
2018,08,20,12,21,23.60
2018,08,20,12,22,23.60
2018,08,20,12,23,23.70
2018,08,20,12,24,23.70
2018,08,20,12,25,23.70
2018,08,20,12,26,23.70
2018,08,20,12,27,23.80
2018,08,20,12,28,23.90
2018,08,20,12,29,23.90
2018,08,20,12,30,23.90
2018,08,20,12,31,24.10
2018,08,20,12,32,24.10
2018,08,20,12,33,24.10
2018,08,20,12,34,24.10
2018,08,20,12,35,24.10
2018,08,20,12,36,24.10
2018,08,20,12,37,24.10
2018,08,20,12,38,24.10
2018,08,20,12,39,24.10
2018,08,20,12,40,24.20
2018,08,20,12,41,24.30
2018,08,20,12,42,24.30
2018,08,20,12,43,24.30
2018,08,20,12,44,24.40
2018,08,20,12,45,24.40
2018,08,20,12,46,24.50
2018,08,20,12,47,24.60
2018,08,20,12,48,24.60
2018,08,20,12,49,24.80
2018,08,20,12,50,24.90
2018,08,20,12,51,25.10
2018,08,20,12,52,25.20
2018,08,20,12,53,25.20
2018,08,20,12,54,25.30
2018,08,20,12,55,25.30
2018,08,20,12,56,25.40
2018,08,20,12,57,25.40
2018,08,20,12,58,25.50
2018,08,20,12,59,25.50
2018,08,20,13,00,25.60
2018,08,20,13,01,25.70
2018,08,20,13,02,25.70
2018,08,20,13,03,25.80
2018,08,20,13,04,25.80
2018,08,20,13,05,25.80
2018,08,20,13,06,25.80
2018,08,20,13,07,25.80
2018,08,20,13,08,25.80
2018,08,20,13,09,25.70
2018,08,20,13,10,25.70
2018,08,20,13,11,25.80
2018,08,20,13,12,25.80
2018,08,20,13,13,25.90
2018,08,20,13,14,25.90
2018,08,20,13,15,25.90
2018,08,20,13,16,26.00
2018,08,20,13,17,26.00
2018,08,20,13,18,26.10
2018,08,20,13,19,26.10
2018,08,20,13,20,26.20
2018,08,20,13,21,26.20
2018,08,20,13,22,26.30
2018,08,20,13,23,26.40
2018,08,20,13,24,26.50
2018,08,20,13,25,26.60
2018,08,20,13,26,26.70
2018,08,20,13,27,26.80
2018,08,20,13,28,26.90
2018,08,20,13,29,26.90
2018,08,20,13,30,27.00
2018,08,20,13,31,27.10
2018,08,20,13,32,27.10
2018,08,20,13,33,27.20
2018,08,20,13,34,27.20
2018,08,20,13,35,27.30
2018,08,20,13,36,27.30
2018,08,20,13,37,27.30
2018,08,20,13,38,27.40
2018,08,20,13,39,27.40
2018,08,20,13,40,27.50
2018,08,20,13,41,27.60
2018,08,20,13,42,27.60
2018,08,20,13,43,27.70
2018,08,20,13,44,27.70
2018,08,20,13,45,27.60
2018,08,20,13,46,27.40
2018,08,20,13,47,27.50
2018,08,20,13,48,27.60
2018,08,20,13,49,27.60
2018,08,20,13,50,27.70
2018,08,20,13,51,27.70
2018,08,20,13,52,27.70
2018,08,20,13,53,27.70
2018,08,20,13,54,27.60
2018,08,20,13,55,27.50
2018,08,20,13,56,27.40
2018,08,20,13,57,27.40
2018,08,20,13,58,27.40
2018,08,20,13,59,27.40
2018,08,20,14,00,27.40
2018,08,20,14,01,27.40
2018,08,20,14,02,27.40
2018,08,20,14,03,27.40
2018,08,20,14,04,27.30
2018,08,20,14,05,27.30
2018,08,20,14,06,27.30
2018,08,20,14,07,27.20
2018,08,20,14,08,27.20
2018,08,20,14,09,27.20
2018,08,20,14,10,27.20
2018,08,20,14,11,27.20
2018,08,20,14,12,27.20
2018,08,20,14,13,27.30
2018,08,20,14,14,27.30
2018,08,20,14,15,27.30
2018,08,20,14,16,27.30
2018,08,20,14,17,27.30
2018,08,20,14,18,27.30
2018,08,20,14,19,27.30
2018,08,20,14,20,27.30
2018,08,20,14,21,27.30
2018,08,20,14,22,27.30
2018,08,20,14,23,27.30
2018,08,20,14,24,27.30
2018,08,20,14,25,27.30
2018,08,20,14,26,27.20
2018,08,20,14,27,27.20
2018,08,20,14,28,27.20
2018,08,20,14,29,27.20
2018,08,20,14,30,27.20
2018,08,20,14,31,27.20
2018,08,20,14,32,27.30
2018,08,20,14,33,27.30
2018,08,20,14,34,27.30
2018,08,20,14,35,27.30
2018,08,20,14,36,27.30
2018,08,20,14,37,27.30
2018,08,20,14,38,27.30
2018,08,20,14,39,27.30
2018,08,20,14,40,27.40
2018,08,20,14,41,27.50
2018,08,20,14,42,27.60
2018,08,20,14,43,27.60
2018,08,20,14,44,27.60
2018,08,20,14,45,27.70
2018,08,20,14,46,27.70
2018,08,20,14,47,27.70
2018,08,20,14,48,27.80
2018,08,20,14,49,27.80
2018,08,20,14,50,27.80
2018,08,20,14,51,27.90
2018,08,20,14,52,27.90
2018,08,20,14,53,28.00
2018,08,20,14,54,28.00
2018,08,20,14,55,28.10
2018,08,20,14,56,28.20
2018,08,20,14,57,28.20
2018,08,20,14,58,28.30
2018,08,20,14,59,28.40
2018,08,20,15,00,28.50
2018,08,20,15,01,28.60
2018,08,20,15,02,28.60
2018,08,20,15,03,28.60
2018,08,20,15,04,28.60
2018,08,20,15,05,28.50
2018,08,20,15,06,28.40
2018,08,20,15,07,28.30
2018,08,20,15,08,28.40
2018,08,20,15,09,28.40
2018,08,20,15,10,28.40
2018,08,20,15,11,28.30
2018,08,20,15,12,28.30
2018,08,20,15,13,28.20
2018,08,20,15,14,28.30
2018,08,20,15,15,28.30
2018,08,20,15,16,28.30
2018,08,20,15,17,28.40
2018,08,20,15,18,28.40
2018,08,20,15,19,28.40
2018,08,20,15,20,28.30
2018,08,20,15,21,28.20
2018,08,20,15,22,28.10
2018,08,20,15,23,28.10
2018,08,20,15,24,28.10
2018,08,20,15,25,28.10
2018,08,20,15,26,28.10
2018,08,20,15,27,28.10
2018,08,20,15,28,28.10
2018,08,20,15,29,28.10
2018,08,20,15,30,28.10
2018,08,20,15,31,28.10
2018,08,20,15,32,28.00
2018,08,20,15,33,28.00
2018,08,20,15,34,28.00
2018,08,20,15,35,28.00
2018,08,20,15,36,28.00
2018,08,20,15,37,28.10
2018,08,20,15,38,28.10
2018,08,20,15,39,28.10
2018,08,20,15,40,28.20
2018,08,20,15,41,28.20
2018,08,20,15,42,28.20
2018,08,20,15,43,28.10
2018,08,20,15,44,28.10
2018,08,20,15,45,28.10
2018,08,20,15,46,28.10
2018,08,20,15,47,28.10
2018,08,20,15,48,28.20
2018,08,20,15,49,28.20
2018,08,20,15,50,28.20
2018,08,20,15,51,28.20
2018,08,20,15,52,28.30
2018,08,20,15,53,28.30
2018,08,20,15,54,28.30
2018,08,20,15,55,28.30
2018,08,20,15,56,28.30
2018,08,20,15,57,28.30
2018,08,20,15,58,28.40
2018,08,20,15,59,28.30
2018,08,20,16,00,28.30
2018,08,20,16,01,28.30
2018,08,20,16,02,28.30
2018,08,20,16,03,28.30
2018,08,20,16,04,28.40
2018,08,20,16,05,28.40
2018,08,20,16,06,28.40
2018,08,20,16,07,28.40
2018,08,20,16,08,28.50
2018,08,20,16,09,28.60
2018,08,20,16,10,28.70
2018,08,20,16,11,28.70
2018,08,20,16,12,28.80
2018,08,20,16,13,28.80
2018,08,20,16,14,28.90
2018,08,20,16,15,28.90
2018,08,20,16,16,28.90
2018,08,20,16,17,28.90
2018,08,20,16,18,28.90
2018,08,20,16,19,28.90
2018,08,20,16,20,28.90
2018,08,20,16,21,28.90
2018,08,20,16,22,28.90
2018,08,20,16,23,28.90
2018,08,20,16,24,29.00
2018,08,20,16,25,29.10
2018,08,20,16,26,29.20
2018,08,20,16,27,29.30
2018,08,20,16,28,29.30
2018,08,20,16,29,29.30
2018,08,20,16,30,29.30
2018,08,20,16,31,29.30
2018,08,20,16,32,29.30
2018,08,20,16,33,29.40
2018,08,20,16,34,29.40
2018,08,20,16,35,29.40
2018,08,20,16,36,29.40
2018,08,20,16,37,29.50
2018,08,20,16,38,29.50
2018,08,20,16,39,29.40
2018,08,20,16,40,29.40
2018,08,20,16,41,29.40
2018,08,20,16,42,29.40
2018,08,20,16,43,29.40
2018,08,20,16,44,29.40
2018,08,20,16,45,29.40
2018,08,20,16,46,29.40
2018,08,20,16,47,29.40
2018,08,20,16,48,29.50
2018,08,20,16,49,29.50
2018,08,20,16,50,29.50
2018,08,20,16,51,29.50
2018,08,20,16,52,29.50
2018,08,20,16,53,29.50
2018,08,20,16,54,29.50
2018,08,20,16,55,29.50
2018,08,20,16,56,29.60
2018,08,20,16,57,29.60
2018,08,20,16,58,29.60
2018,08,20,16,59,29.60
2018,08,20,17,00,29.70
2018,08,20,17,01,29.70
2018,08,20,17,02,29.80
2018,08,20,17,03,29.80
2018,08,20,17,04,29.80
2018,08,20,17,05,29.70
2018,08,20,17,06,29.70
2018,08,20,17,07,29.70
2018,08,20,17,08,29.70
2018,08,20,17,09,29.80
2018,08,20,17,10,29.80
2018,08,20,17,11,29.70
2018,08,20,17,12,29.70
2018,08,20,17,13,29.80
2018,08,20,17,14,29.80
2018,08,20,17,15,29.70
2018,08,20,17,16,29.70
2018,08,20,17,17,29.70
2018,08,20,17,18,29.70
2018,08,20,17,19,29.70